This is the latest recevied weather packets stored in our database for station/object KQ4LLM. If no packets are shown the sender has not sent any weather packets the latest 10 day(s).
| Time | Temp. | Humidity | Pressure | Rain* | Wind** | Luminosity | Snow |
|---|---|---|---|---|---|---|---|
| 1788270955 | 27.78° C | 72% | - | 0 mm | - | - | - |
| 1788270650 | 27.22° C | 74% | - | 0 mm | - | - | - |
| 1788270346 | 26.67° C | 73% | - | 0 mm | - | - | - |
| 1788270041 | 26.67° C | 75% | - | 0 mm | - | - | - |
| 1788269739 | 26.67° C | 78% | - | 0 mm | - | - | - |
| 1788269438 | 26.11° C | 78% | - | 0 mm | - | - | - |
| 1788269133 | 26.11° C | 80% | - | 0 mm | - | - | - |
| 1788268832 | 25.56° C | 80% | - | 0 mm | - | - | - |
| 1788268526 | 25.56° C | 82% | - | 0 mm | - | - | - |
| 1788268216 | 25.56° C | 84% | - | 0 mm | - | - | - |
| 1788267910 | 25° C | 85% | - | 0 mm | - | - | - |
| 1788267604 | 25° C | 86% | - | 0 mm | - | - | - |
| 1788267303 | 25° C | 86% | - | 0 mm | - | - | - |
| 1788267003 | 23.89° C | 90% | - | 0 mm | - | - | - |
| 1788266698 | 23.89° C | 90% | - | 0 mm | - | - | - |
| 1788266393 | 23.89° C | 91% | - | 0 mm | - | - | - |
| 1788266088 | 23.33° C | 92% | - | 0 mm | - | - | - |
| 1788265786 | 23.33° C | 94% | - | 0 mm | - | - | - |
| 1788265485 | 22.78° C | 95% | - | 0 mm | - | - | - |
| 1788265184 | 22.78° C | 96% | - | 0 mm | - | - | - |
| 1788264879 | 22.22° C | 97% | - | 0 mm | - | - | - |
| 1788264574 | 22.22° C | 97% | - | 0 mm | - | - | - |
| 1788264269 | 22.22° C | 97% | - | 0 mm | - | - | - |
| 1788263965 | 21.67° C | 97% | - | 0 mm | - | - | - |
| 1788263665 | 21.67° C | 98% | - | 0 mm | - | - | - |
* Rain latest hour (hover to see other rain measurements)
** Current wind speed in m/s (hover to see current wind gust speed)